Location: Newark
(52.3500°N, 175.9667°E)
Time: 21:29:36
(UTC+00:00)

ISS - Pass Details

Date: 07 March 2021
Orbit: 418 x 422 km, 51.6° (Epoch: 16 April)

Event Time Altitude Azimuth Distance (km) Brightness Sun altitude
Exits shadow 16:19:08 38° 113° (ESE) 661 -2.5 -23.0°
Drops below altitude 10° 16:21:20 10° 105° (ESE) 1,499 -0.3 -22.7°
Sets 16:23:26 0° 103° (ESE) 2,362 0.9 -22.4°
